BEESAT-1

Last updated on Tue Jul 01 2025 00:03:06 GMT+0000 (Coordinated Universal Time)

1 35933U 09051C 25181.22264515 .00000554 00000+0 12350-3 0 9999 2 35933 98.4214 78.1605 0004154 234.3489 125.7324 14.60784139837787
UTC large
Height (km)
Speed (km/s)
/
Latitude / Longitude
Inclination (degrees)
Orbital Period (minutes)
Azimuth
Elevation
Range (km)
Doppler Factor

Next 0 passes for location: London (51.5072 / 0.1276)

Sorry there are no passes over London.